Location: ?????
(55.8833°N, 37.6500°E)
Time: 09:01:43
(UTC+00:00)

STARLINK-31 - Pass Details

Date: 27 February 2020
Orbit: 529 x 530 km, 53.0° (Epoch: 05 April)

Event Time Altitude Azimuth Distance (km) Brightness Sun altitude
Rises 15:47:54 0° 253° (WSW) 2,666 9.0 -7.7°
Reaches altitude 10° 15:50:08 10° 249° (WSW) 1,778 7.6 -8.0°
Maximum altitude 15:54:04 54° 172° (S) 648 3.9 -8.6°
Enters shadow 15:57:41 12° 96° (E) 1,646 5.4 -9.1°
